RH
43 52 44 38 34 25 18 15 16 15 14 13 11 8 7 5 8 12 14 15 15 19 18 17 15 17 22 21 21 21 22 23 32 29 27 28 27 31 35 39 48 48 48 47
37 44 50 53 54 55 55 51 47 43 39 36 28 23 19 16 7 5 5 5 5 5 6 9 12 15 19 21 20 20 22 23 25 28 31 32 30 31 37 42 42 47 50 48
21 28 33 44 47 47 49 54 52 57 50 45 42 35 28 32 30 25 23 20 15 13 14 10 7 9 11 17 19 20 21 23 24 26 42 49 42 33 30 27 27 30 39 47
25 24 25 32 33 39 44 41 44 48 51 45 41 36 34 34 30 30 30 30 31 29 28 24 18 17 19 22 20 19 21 23 23 23 27 37 48 47 32 34 34 35 38 50
30 26 28 28 32 42 50 48 49 46 46 46 48 44 37 35 35 33 35 37 35 32 30 29 28 22 21 21 20 20 23 24 23 23 24 25 27 28 31 35 34 32 33 38
35 41 38 38 43 45 56 58 58 56 52 52 47 49 38 36 36 39 42 34 32 31 31 29 28 26 24 25 26 26 25 22 21 22 23 24 24 25 25 25 25 27 28 28
53 54 52 52 52 57 61 62 54 58 60 46 42 51 36 33 38 40 37 39 39 37 34 36 33 31 29 29 28 26 25 26 27 22 21 20 21 20 20 21 21 21 22 23
54 61 57 57 52 51 47 52 57 56 47 44 57 54 44 34 46 45 45 46 46 46 46 45 40 34 33 31 29 28 29 29 27 29 26 21 20 19 20 20 20 19 19 18
79 76 80 76 70 63 68 61 52 57 60 62 51 48 34 27 38 40 40 44 46 47 45 42 39 39 40 38 32 26 24 26 28 27 25 28 26 21 19 18 18 18 17 17
73 62 74 71 67 64 61 62 66 67 67 70 50 55 41 27 33 37 47 48 50 59 55 54 50 47 43 39 38 39 38 38 35 38 38 34 32 31 27 24 19 17 16 17
48 52 58 60 65 67 62 63 67 68 73 73 56 36 37 40 44 54 60 64 55 49 50 47 44 41 40 36 36 35 35 34 38 35 38 37 34 34 32 27 26 23 16 16
42 40 40 42 47 50 42 36 36 52 60 75 89 59 48 55 55 54 50 51 44 32 28 24 21 20 25 32 31 31 28 28 30 35 38 34 35 39 30 28 26 25 20 17
42 61 52 41 50 46 49 52 53 67 74 85 69 46 40 46 51 38 27 20 17 15 14 12 9 8 7 9 13 18 20 22 24 28 34 45 33 41 31 27 26 24 22 18
44 48 40 39 39 48 65 86 80 82 90 79 75 54 13 36 24 13 14 13 20 25 20 22 25 22 20 15 12 11 12 15 19 30 41 48 54 40 39 32 26 24 27 27
58 72 65 67 68 60 57 50 43 60 72 87 69 66 14 16 20 15 18 19 22 26 27 27 28 24 28 21 15 13 13 13 14 18 38 52 54 57 58 47 36 34 45 51
94 80 85 95 65 63 69 75 69 62 61 58 41 30 23 17 23 23 25 26 31 25 24 31 27 30 69 55 28 20 15 16 19 21 23 47 51 57 64 98 100 88 65 62
78 99 100 88 81 97 87 46 44 46 47 45 71 28 19 22 29 34 25 46 40 30 31 34 40 54 83 52 52 44 34 34 50 40 30 26 47 53 60 85 100 100 98 91
71 89 100 93 85 88 48 57 56 60 53 48 47 28 33 44 43 35 30 39 39 40 33 33 61 76 66 53 44 38 40 38 36 44 44 39 35 52 62 67 100 96 96 91
59 73 100 94 90 67 53 48 53 49 42 39 30 40 54 51 53 35 36 44 44 40 56 54 55 57 52 56 49 42 31 24 21 23 31 35 36 44 47 67 81 100 100 95
64 73 100 93 93 81 42 48 50 50 60 36 51 60 55 54 66 39 38 48 54 53 51 46 53 46 34 32 33 23 18 16 17 23 23 24 25 36 62 59 71 90 96 97
74 100 100 100 95 84 56 35 64 73 57 49 51 57 63 58 58 53 46 33 46 50 51 47 47 46 34 32 27 20 17 17 21 20 18 18 18 19 35 73 71 67 75 84
58 65 99 100 94 85 33 50 68 68 62 61 64 60 64 69 60 48 50 55 44 48 52 51 56 43 35 30 24 20 16 18 22 25 24 20 17 16 18 43 78 70 81 92
92 70 67 65 59 50 48 53 56 59 66 75 84 69 87 84 68 59 59 58 59 59 52 47 54 52 36 30 31 25 19 20 20 25 25 20 22 24 28 37 76 74 79 80
82 78 82 87 64 49 55 62 66 65 76 77 78 73 70 79 70 66 58 51 53 57 57 57 59 52 44 38 30 25 22 21 20 22 21 22 63 61 41 60 85 71 78 78
79 82 70 69 51 55 52 65 54 48 60 58 57 66 62 71 52 52 49 58 70 65 53 44 42 42 37 29 22 24 23 30 25 22 21 52 88 85 60 79 98 81 72 76
58 60 75 64 62 76 51 49 60 60 55 60 78 62 62 78 73 65 60 55 57 54 51 50 47 44 29 27 27 27 28 38 39 29 36 83 82 94 94 100 99 99 96 79
Wind_Speed
33 31 34 28 22 22 23 24 23 22 22 25 28 35 32 30 34 34 34 33 31 29 26 27 29 27 27 26 24 29 33 32 33 32 30 28 26 25 24 24 26 24 23 22
32 38 32 31 31 28 27 28 31 28 25 24 26 38 34 32 32 34 35 33 32 30 26 27 29 30 29 29 26 31 32 32 32 36 36 36 34 32 31 31 29 30 29 28
27 30 28 32 28 30 33 32 31 29 27 31 26 43 41 38 35 32 32 33 31 26 22 22 27 29 30 28 29 27 33 32 31 37 44 45 44 40 36 30 28 29 34 32
20 25 30 29 28 23 26 29 23 20 19 14 9 22 40 39 42 40 35 30 24 21 18 20 23 24 25 26 28 31 32 35 34 39 42 45 47 48 42 42 39 38 38 38
15 17 20 25 28 26 23 17 14 10 13 18 19 12 37 18 31 38 29 31 29 25 26 24 26 28 29 27 28 29 28 30 35 41 41 41 45 43 45 47 46 42 41 43
22 15 15 15 15 10 11 10 8 11 11 11 18 15 58 29 24 21 15 11 16 18 22 22 23 23 26 25 24 23 25 27 30 30 36 43 42 41 42 40 39 40 42 41
18 19 18 17 14 10 8 4 3 4 6 7 9 16 37 13 14 18 28 27 26 29 34 36 37 35 33 31 32 34 32 29 28 35 36 36 41 40 44 45 42 41 41 40
10 4 10 12 18 14 12 16 8 6 5 3 4 15 15 16 9 12 19 22 25 26 27 30 34 37 38 39 38 39 41 42 40 37 38 42 43 46 45 43 42 43 41 39
6 5 7 7 11 9 7 8 11 12 14 7 11 24 36 39 33 26 21 23 26 25 22 22 23 26 27 31 36 39 43 43 43 42 42 44 44 47 49 46 46 48 45 42
7 3 8 6 4 3 8 9 5 7 4 5 6 15 24 16 25 29 22 15 19 18 20 23 27 29 30 33 30 31 33 34 39 40 40 43 45 45 46 47 51 51 46 48
5 6 3 7 5 11 8 7 7 8 6 3 5 12 12 15 18 17 15 16 25 29 30 34 37 36 31 31 35 36 35 34 34 38 41 43 45 45 45 42 44 46 46 49
5 3 5 11 9 13 15 15 15 13 6 10 7 29 14 12 18 24 30 28 40 48 48 45 44 42 43 42 39 39 40 42 40 37 37 41 44 39 47 46 43 47 48 48
4 1 0 3 5 11 12 14 17 17 15 12 10 25 14 17 20 28 44 51 50 42 37 36 36 37 38 36 37 37 35 36 41 41 38 37 41 38 42 48 48 48 49 49
15 12 14 13 11 12 12 13 13 12 8 14 26 43 53 44 50 52 45 38 31 31 29 28 27 27 25 27 31 33 34 36 36 36 34 34 31 37 40 44 46 47 47 43
10 11 15 17 21 25 30 31 30 29 26 24 34 42 63 53 39 35 33 33 33 32 28 29 29 30 29 29 29 32 35 35 36 37 35 34 33 28 34 32 36 37 35 29
10 10 13 19 24 26 32 29 31 35 36 42 46 54 35 35 31 31 30 30 33 36 37 35 33 29 31 32 31 31 33 36 35 33 36 35 34 31 26 22 20 20 25 25
17 11 9 10 9 14 24 27 21 23 23 25 34 31 30 34 32 31 32 37 35 35 34 33 27 28 32 35 36 35 35 36 36 35 34 32 36 35 31 25 20 19 21 28
22 17 13 14 15 8 10 8 6 10 19 21 29 36 32 32 29 32 31 30 31 34 34 33 26 29 35 39 38 40 40 39 40 37 37 35 34 38 35 35 22 24 22 24
21 23 12 7 12 27 33 5 3 13 32 29 34 25 25 23 31 38 34 34 35 35 36 38 38 42 45 44 42 39 39 42 43 42 40 40 37 36 39 44 40 24 25 25
11 20 24 14 7 7 10 15 27 24 31 25 15 17 27 40 41 49 45 46 50 47 45 45 47 46 45 43 44 45 43 42 40 42 43 42 41 38 36 36 44 36 27 31
12 15 27 28 20 24 29 32 18 18 30 23 24 30 44 53 46 49 51 50 52 54 53 46 45 42 41 40 40 43 46 41 41 41 42 42 42 42 38 37 40 38 44 39
12 10 11 15 16 20 28 22 21 23 32 41 49 58 52 50 51 52 51 50 51 51 49 43 42 43 40 38 42 46 46 42 42 44 44 41 42 44 43 38 36 38 31 33
12 15 18 21 19 29 39 41 46 50 53 49 44 43 40 44 47 48 51 52 51 46 48 47 45 44 40 37 44 46 42 42 43 44 43 43 41 43 39 40 38 38 39 29
24 27 35 32 38 39 39 39 33 34 37 39 37 41 44 44 45 45 47 51 52 48 45 44 42 44 44 44 46 47 43 42 41 39 41 40 41 39 36 37 36 42 40 39
33 32 37 40 35 32 33 32 34 38 39 39 39 39 41 41 42 43 46 46 43 45 45 43 43 44 46 46 47 44 41 41 38 35 39 40 37 35 37 36 36 39 40 44
30 28 26 33 30 35 41 35 34 41 41 39 40 42 40 40 41 42 45 46 46 45 45 45 44 43 44 44 44 41 39 40 38 34 38 36 32 32 32 37 36 37 37 44
Wind_Direction
235 240 244 255 259 257 263 269 275 273 277 281 276 271 269 261 259 263 267 271 271 266 258 265 275 270 267 267 275 258 257 258 257 258 257 259 262 256 254 256 258 263 265 269
234 239 245 253 257 260 263 266 268 274 280 277 277 270 267 268 263 265 270 272 273 272 270 264 264 268 269 264 266 256 256 256 255 253 255 255 257 258 259 259 260 260 262 264
240 246 249 252 254 263 266 262 265 270 272 273 287 277 272 275 271 266 270 276 280 282 275 260 255 258 261 263 263 260 250 255 256 250 251 254 256 257 257 258 266 272 269 268
237 238 242 249 252 256 258 263 272 269 268 263 277 282 273 278 277 277 278 283 293 289 275 269 262 258 257 257 258 260 253 247 253 250 251 252 255 260 263 264 265 268 269 269
228 239 238 244 246 243 261 266 273 268 267 272 260 266 280 269 272 282 290 297 292 282 277 266 264 262 260 262 263 261 255 249 249 248 254 257 259 259 261 264 267 266 267 268
224 234 237 239 246 244 224 241 246 253 239 251 242 228 275 279 285 281 290 263 256 267 260 255 255 249 249 255 259 262 263 263 262 255 251 255 254 256 256 257 259 262 263 263
226 239 247 245 234 213 215 178 181 212 204 265 239 220 252 244 292 279 276 276 272 274 269 275 278 266 267 268 266 265 266 263 265 258 257 256 257 258 257 255 257 260 261 259
192 164 218 230 238 236 226 228 209 239 222 268 204 243 254 268 247 279 279 281 281 282 282 282 283 282 281 280 277 275 273 271 267 268 263 257 254 254 257 255 255 257 260 266
162 154 164 135 134 149 159 186 221 245 265 275 240 262 270 272 271 278 276 284 272 279 286 294 292 292 294 291 288 282 277 278 278 276 270 263 260 258 257 261 258 259 261 263
170 173 199 204 222 233 208 193 182 204 234 238 252 258 246 264 289 286 291 279 268 295 297 296 299 302 300 303 303 304 302 295 284 281 277 270 265 263 260 263 264 263 261 261
171 209 205 209 180 166 159 190 217 220 225 254 288 259 274 284 283 278 271 286 308 307 297 298 296 294 298 299 293 296 299 305 304 289 280 276 268 268 266 256 260 263 259 258
259 237 226 233 214 235 256 257 246 232 237 234 254 269 289 258 267 277 291 303 307 306 301 298 298 298 295 295 297 295 295 292 295 299 294 284 278 271 268 256 263 258 254 254
262 248 321 292 243 235 237 238 234 235 239 239 243 258 263 266 272 286 300 303 310 314 311 309 304 299 298 297 295 295 291 293 289 291 299 291 280 277 269 262 263 257 252 250
282 263 250 242 256 250 245 222 220 233 246 261 246 276 283 285 297 304 304 310 311 312 303 299 297 300 299 290 284 283 284 286 291 286 290 289 288 279 269 261 260 259 250 247
270 263 266 264 260 260 260 259 249 258 259 254 267 269 287 301 305 307 305 303 304 307 303 287 289 298 297 289 286 283 279 280 282 286 283 283 285 286 273 256 252 254 252 246
262 275 275 276 280 281 275 271 264 259 258 260 269 275 298 309 304 306 309 305 297 296 305 311 299 289 289 291 290 289 286 279 281 277 280 279 278 280 283 251 265 248 236 228
274 275 291 282 294 292 282 276 267 263 258 262 260 294 313 306 314 311 301 307 312 311 308 311 303 290 287 293 296 294 293 289 287 282 283 282 276 274 276 261 255 248 229 218
270 265 262 282 295 258 272 236 209 266 277 271 279 298 312 306 311 300 302 314 314 314 310 306 294 285 287 289 293 296 293 290 291 290 287 285 278 273 258 273 260 235 221 223
253 250 241 257 252 280 293 292 216 291 293 296 295 305 313 311 311 293 305 309 302 303 308 304 302 298 300 294 295 294 293 293 289 290 288 291 289 276 274 256 264 252 231 232
241 240 230 236 252 264 276 277 292 300 282 320 300 296 311 315 302 296 300 298 298 297 296 291 290 293 297 298 296 297 300 290 287 285 283 287 288 282 275 267 253 255 256 242
243 227 226 239 250 268 283 295 294 277 287 305 288 287 300 301 293 293 291 290 292 293 296 293 293 295 296 297 300 302 301 299 286 281 282 283 286 284 276 266 258 260 267 257
247 241 228 238 250 266 296 299 276 297 300 296 291 293 297 294 290 286 281 287 291 288 292 289 289 290 292 297 298 298 302 301 292 281 286 284 283 280 276 276 257 253 260 263
242 245 257 242 262 279 287 284 290 292 297 299 297 294 297 296 293 286 284 288 294 289 290 289 287 289 292 292 296 298 302 302 296 287 290 287 284 282 272 271 255 247 248 250
270 271 266 273 284 298 301 301 301 303 301 298 298 296 298 299 295 295 294 292 294 292 295 298 295 291 292 293 295 294 297 300 297 293 293 287 287 283 272 262 246 241 237 240
284 284 286 289 296 307 299 307 307 305 305 305 302 302 300 299 295 296 293 297 295 289 294 298 292 289 290 293 291 290 295 298 292 292 292 288 285 284 276 261 248 236 234 240
295 306 295 298 312 306 300 312 312 309 308 308 306 301 300 301 299 295 291 292 294 293 294 296 298 293 287 286 291 290 294 296 292 296 286 286 285 285 268 249 247 241 232 232